EW9485 Weather Reports


Display with metric or nautical units.
time (UTC)temp
F
wind
direction
speed
MPH
gust
MPH
rain 1hr
in
rain 24hr
in
rain mn
in
humidity
%
barometer
mb
20260905174602 87 234 4.0 8.0 0.00 0.13 0.02 73 1014.0
20260905174047 87 294 4.0 8.0 0.00 0.13 0.02 73 1014.1
20260905173547 88 255 4.0 8.0 0.00 0.13 0.02 72 1014.1
20260905173053 88 225 3.0 8.0 0.00 0.13 0.02 73 1014.1
20260905172544 87 225 3.0 10.0 0.00 0.13 0.02 75 1014.4
20260905172046 87 238 5.0 10.0 0.00 0.13 0.02 74 1014.4
20260905171607 88 229 5.0 10.0 0.00 0.13 0.02 73 1014.3
20260905171048 88 232 5.0 9.0 0.00 0.13 0.02 73 1014.4
20260905170543 88 281 4.0 9.0 0.00 0.13 0.02 73 1014.5
20260905170109 89 273 4.0 7.0 0.00 0.13 0.02 72 1014.6
20260905165545 89 232 2.0 8.0 0.00 0.13 0.02 74 1014.5
20260905165043 88 243 3.0 8.0 0.00 0.13 0.02 76 1014.5
20260905164555 89 302 2.0 7.0 0.00 0.13 0.02 73 1014.5
20260905164046 88 278 3.0 7.0 0.00 0.13 0.02 73 1014.5
20260905163545 89 284 1.0 7.0 0.00 0.13 0.02 75 1014.5
20260905163053 88 252 3.0 7.0 0.00 0.13 0.02 75 1014.5
20260905162546 87 187 1.0 6.0 0.00 0.13 0.02 80 1014.6
20260905162045 85 191 3.0 9.0 0.00 0.13 0.02 78 1014.7
20260905161601 85 256 1.0 9.0 0.00 0.13 0.02 78 1014.7
20260905161046 85 224 4.0 9.0 0.00 0.13 0.02 75 1014.8
20260905160549 86 230 4.0 11.0 0.01 0.13 0.02 75 1014.9
20260905160056 87 285 5.0 11.0 0.01 0.13 0.02 74 1014.9
20260905155546 88 242 5.0 9.0 0.01 0.13 0.02 75 1014.8
20260905155046 87 236 3.0 8.0 0.02 0.13 0.02 77 1014.8
20260905154600 86 242 4.0 8.0 0.02 0.13 0.02 75 1014.7
20260905154043 88 202 3.0 8.0 0.02 0.13 0.02 73 1014.8
20260905153546 89 219 2.0 7.0 0.02 0.13 0.02 74 1014.7
20260905153102 88 215 3.0 7.0 0.02 0.13 0.02 76 1014.8
20260905152543 87 260 2.0 6.0 0.02 0.13 0.02 76 1014.9
20260905152043 87 182 2.0 6.0 0.02 0.13 0.02 79 1014.9
20260905151602 86 188 3.0 5.0 0.02 0.13 0.02 81 1014.8
20260905151043 85 186 2.0 5.0 0.02 0.13 0.02 88 1014.7
20260905150546 84 223 2.0 3.0 0.01 0.12 0.01 84 1014.8
20260905150056 84 0 0.0 2.0 0.01 0.12 0.01 83 1014.7
20260905145546 84 0 1.0 4.0 0.01 0.12 0.01 81 1014.7
20260905145045 85 300 1.0 6.0 0.00 0.11 0.00 81 1014.7
20260905144604 85 46 2.0 6.0 0.00 0.11 0.00 81 1014.7
20260905144046 86 40 2.0 5.0 0.00 0.11 0.00 80 1014.7
20260905143544 86 70 2.0 5.0 0.00 0.11 0.00 81 1014.8
20260905143054 87 46 3.0 5.0 0.00 0.11 0.00 79 1014.7
20260905142546 86 40 1.0 5.0 0.00 0.11 0.00 79 1014.8
20260905142047 85 35 2.0 6.0 0.00 0.11 0.00 81 1014.7
20260905141604 85 20 2.0 6.0 0.00 0.11 0.00 82 1014.6
20260905141047 84 32 3.0 6.0 0.00 0.11 0.00 83 1014.6
20260905140549 83 54 1.0 4.0 0.00 0.11 0.00 89 1014.5
20260905140105 82 61 2.0 4.0 0.00 0.11 0.00 88 1014.5
20260905135549 82 33 1.0 3.0 0.00 0.11 0.00 89 1014.4
20260905135049 82 38 1.0 3.0 0.00 0.11 0.00 90 1014.4
20260905134611 81 38 1.0 3.0 0.00 0.11 0.00 91 1014.3
20260905134050 81 38 1.0 3.0 0.00 0.11 0.00 91 1014.2
20260905133547 81 38 1.0 4.0 0.00 0.11 0.00 91 1014.2
20260905133056 80 38 2.0 5.0 0.00 0.11 0.00 91 1014.3
20260905132549 80 38 2.0 5.0 0.00 0.11 0.00 91 1014.3
20260905132048 80 30 3.0 5.0 0.00 0.11 0.00 91 1014.3
20260905131605 79 76 1.0 3.0 0.00 0.11 0.00 91 1014.3
20260905131047 79 76 1.0 2.0 0.00 0.11 0.00 91 1014.2
20260905130548 79 76 1.0 3.0 0.00 0.11 0.00 91 1014.2
20260905130051 79 76 1.0 3.0 0.00 0.11 0.00 91 1014.1
20260905125552 79 76 1.0 3.0 0.00 0.11 0.00 91 1014.2
20260905125047 79 17 0.0 2.0 0.00 0.11 0.00 91 1014.1
20260905124558 79 0 1.0 3.0 0.00 0.11 0.00 91 1014.1
20260905124049 78 0 1.0 4.0 0.00 0.11 0.00 91 1014.0
20260905123545 78 98 2.0 4.0 0.00 0.11 0.00 91 1014.1
20260905123055 78 101 2.0 4.0 0.00 0.11 0.00 91 1014.1
20260905122548 77 99 1.0 4.0 0.00 0.11 0.00 91 1014.0
20260905122050 77 101 1.0 4.0 0.00 0.11 0.00 91 1014.0
20260905121553 76 0 1.0 4.0 0.00 0.11 0.00 91 1014.0
20260905121047 76 101 1.0 4.0 0.00 0.11 0.00 91 1014.1
20260905120546 76 101 2.0 4.0 0.00 0.11 0.00 91 1014.0
20260905120100 76 96 1.0 3.0 0.00 0.11 0.00 90 1014.0
20260905115546 76 71 1.0 3.0 0.00 0.11 0.00 90 1013.9
20260905115048 76 71 1.0 3.0 0.00 0.11 0.00 90 1013.9
20260905114609 76 70 1.0 3.0 0.00 0.11 0.00 90 1013.9
20260905114047 76 0 1.0 3.0 0.00 0.11 0.00 90 1013.9
20260905113548 76 70 0.0 4.0 0.00 0.11 0.00 90 1013.7
20260905113055 76 70 2.0 4.0 0.00 0.11 0.00 90 1013.8
20260905112547 76 70 1.0 4.0 0.00 0.11 0.00 90 1013.8
20260905112051 76 70 1.0 4.0 0.00 0.11 0.00 90 1013.8
20260905111604 76 70 1.0 3.0 0.00 0.11 0.00 90 1013.8
20260905111048 76 120 1.0 3.0 0.00 0.11 0.00 90 1013.8
20260905110549 76 120 1.0 3.0 0.00 0.11 0.00 90 1013.7
20260905105548 76 120 0.0 2.0 0.00 0.11 0.00 90 1013.7
20260905105047 76 120 1.0 2.0 0.00 0.11 0.00 90 1013.7
20260905104603 76 0 0.0 2.0 0.00 0.11 0.00 90 1013.7
20260905104051 76 0 0.0 2.0 0.00 0.11 0.00 90 1013.6
20260905103547 76 120 0.0 3.0 0.00 0.11 0.00 90 1013.6
20260905103112 76 120 1.0 3.0 0.00 0.11 0.00 90 1013.6
20260905102547 76 120 1.0 3.0 0.00 0.11 0.00 90 1013.5
20260905102044 76 119 1.0 3.0 0.00 0.11 0.00 90 1013.4
20260905101602 76 120 1.0 3.0 0.00 0.11 0.00 90 1013.4
20260905101048 76 120 1.0 3.0 0.00 0.11 0.00 90 1013.3
20260905100549 76 120 1.0 3.0 0.00 0.11 0.00 90 1013.3
20260905100055 76 0 1.0 3.0 0.00 0.11 0.00 90 1013.4
20260905095547 76 120 1.0 2.0 0.00 0.11 0.00 90 1013.3
20260905095044 76 120 0.0 2.0 0.00 0.11 0.00 90 1013.5
20260905094612 76 120 1.0 2.0 0.00 0.11 0.00 90 1013.4
20260905094044 76 120 1.0 2.0 0.00 0.11 0.00 90 1013.4
20260905093548 76 120 1.0 2.0 0.00 0.11 0.00 90 1013.3
20260905093101 76 120 0.0 2.0 0.00 0.11 0.00 90 1013.2
20260905092550 76 120 1.0 2.0 0.00 0.11 0.00 90 1013.3
20260905092047 76 120 1.0 2.0 0.00 0.11 0.00 90 1013.3
20260905091607 76 120 1.0 2.0 0.00 0.11 0.00 90 1013.3
20260905091047 76 120 0.0 2.0 0.00 0.11 0.00 90 1013.3
20260905090547 76 120 0.0 2.0 0.00 0.11 0.00 90 1013.3
20260905090055 76 120 0.0 2.0 0.00 0.11 0.00 90 1013.2
20260905085547 76 0 0.0 3.0 0.00 0.11 0.00 90 1013.2
20260905085047 76 120 1.0 3.0 0.00 0.11 0.00 90 1013.3
20260905084554 76 120 1.0 3.0 0.00 0.11 0.00 90 1013.3
20260905084044 76 120 1.0 4.0 0.00 0.11 0.00 90 1013.2
20260905083548 76 120 1.0 4.0 0.00 0.11 0.00 90 1013.2
20260905083058 76 120 2.0 3.0 0.00 0.11 0.00 90 1013.1
20260905082548 76 120 1.0 3.0 0.00 0.11 0.00 89 1013.2
20260905082051 76 120 1.0 2.0 0.00 0.11 0.00 89 1013.2
20260905081619 76 120 1.0 3.0 0.00 0.11 0.00 89 1013.3
20260905081047 76 120 1.0 3.0 0.00 0.11 0.00 89 1013.2
20260905080548 76 120 0.0 2.0 0.00 0.11 0.00 89 1013.3
20260905080100 76 120 0.0 2.0 0.00 0.11 0.00 89 1013.2
20260905075548 76 120 0.0 2.0 0.00 0.11 0.00 89 1013.1
20260905075048 76 0 0.0 2.0 0.00 0.11 0.00 89 1013.1
20260905074553 76 120 1.0 2.0 0.00 0.11 0.00 89 1013.1
20260905074047 76 120 1.0 2.0 0.00 0.11 0.00 89 1013.1
20260905073547 76 120 0.0 2.0 0.00 0.11 0.00 89 1013.0
20260905073100 76 120 1.0 3.0 0.00 0.11 0.00 89 1013.1
20260905072546 76 0 1.0 3.0 0.00 0.11 0.00 89 1013.0
20260905072043 76 120 1.0 3.0 0.00 0.11 0.00 89 1012.9
20260905071606 77 120 1.0 3.0 0.00 0.11 0.00 89 1013.0
20260905071048 77 120 1.0 3.0 0.00 0.11 0.00 89 1012.9
20260905070545 77 120 1.0 4.0 0.00 0.11 0.00 89 1013.0
20260905070055 77 120 1.0 4.0 0.00 0.11 0.00 89 1013.0
20260905065546 77 120 1.0 4.0 0.00 0.11 0.00 89 1013.1
20260905065046 77 120 1.0 4.0 0.00 0.11 0.00 89 1013.1
20260905064557 77 120 2.0 4.0 0.00 0.11 0.00 89 1013.1
20260905064047 77 125 2.0 4.0 0.00 0.11 0.00 89 1013.1
20260905063545 77 86 2.0 3.0 0.00 0.11 0.00 89 1013.1
20260905063112 77 86 1.0 3.0 0.00 0.11 0.00 89 1013.1
20260905062554 77 86 1.0 2.0 0.00 0.11 0.00 89 1013.2
20260905062046 77 86 1.0 3.0 0.00 0.11 0.00 89 1013.2
20260905061610 77 86 1.0 3.0 0.00 0.11 0.00 89 1013.1
20260905061043 77 86 0.0 3.0 0.00 0.11 0.00 89 1013.3
20260905060542 77 86 1.0 3.0 0.00 0.11 0.00 88 1013.4
20260905060056 77 86 1.0 3.0 0.00 0.11 0.00 88 1013.4
20260905055545 77 86 1.0 4.0 0.00 0.11 0.00 88 1013.5
20260905055046 77 86 1.0 4.0 0.00 0.11 0.00 88 1013.7
20260905054601 77 85 1.0 3.0 0.00 0.11 0.00 88 1013.5
20260905054045 77 0 1.0 4.0 0.00 0.11 0.00 88 1013.5
20260905053548 77 85 1.0 4.0 0.00 0.11 0.00 88 1013.5
20260905053058 77 84 2.0 4.0 0.00 0.11 0.00 88 1013.6
20260905052546 77 84 1.0 4.0 0.00 0.11 0.00 88 1013.5
20260905052045 77 90 1.0 4.0 0.00 0.11 0.00 88 1013.5
20260905051556 77 88 2.0 6.0 0.00 0.11 0.00 88 1013.7
20260905051045 77 89 2.0 6.0 0.00 0.11 0.00 88 1013.8
20260905050542 77 94 3.0 7.0 0.00 0.11 0.00 88 1013.7
20260905050054 77 98 2.0 7.0 0.00 0.11 0.00 88 1013.7
20260905045548 78 91 2.0 4.0 0.00 0.11 0.11 88 1013.9
20260905045042 78 88 1.0 5.0 0.00 0.11 0.11 88 1013.9
20260905044603 78 90 2.0 5.0 0.00 0.11 0.11 87 1014.1
20260905044048 78 69 2.0 5.0 0.00 0.11 0.11 87 1014.0
20260905043548 78 107 2.0 4.0 0.00 0.11 0.11 87 1013.9
20260905043118 78 115 2.0 4.0 0.00 0.11 0.11 87 1013.8
20260905042545 78 90 2.0 4.0 0.00 0.11 0.11 87 1014.0
20260905042045 78 92 2.0 4.0 0.00 0.11 0.11 87 1014.0
20260905041602 78 0 2.0 4.0 0.00 0.11 0.11 87 1014.1
20260905041047 78 87 2.0 3.0 0.00 0.11 0.11 87 1014.1
20260905040542 78 100 1.0 3.0 0.00 0.11 0.11 87 1014.1
20260905040117 78 100 1.0 3.0 0.00 0.11 0.11 87 1014.2
20260905035546 78 100 0.0 2.0 0.00 0.11 0.11 86 1014.2
20260905035044 78 100 0.0 3.0 0.00 0.11 0.11 86 1014.3
20260905034602 78 0 1.0 3.0 0.00 0.11 0.11 86 1014.3
20260905034048 78 0 1.0 3.0 0.00 0.11 0.11 86 1014.2
20260905033544 78 99 1.0 2.0 0.00 0.11 0.11 86 1014.2
20260905033101 78 99 0.0 2.0 0.00 0.11 0.11 86 1014.2
20260905032544 78 0 0.0 2.0 0.00 0.11 0.11 86 1014.4
20260905032043 79 99 1.0 2.0 0.00 0.11 0.11 86 1014.4
20260905031555 79 0 1.0 2.0 0.00 0.11 0.11 86 1014.4
20260905031043 79 0 1.0 2.0 0.00 0.11 0.11 86 1014.3
20260905030544 79 99 1.0 2.0 0.00 0.11 0.11 86 1014.3
20260905030054 79 99 1.0 3.0 0.00 0.11 0.11 86 1014.4
20260905025545 79 99 1.0 3.0 0.00 0.11 0.11 85 1014.4
20260905025046 79 99 1.0 2.0 0.00 0.11 0.11 85 1014.5
20260905024557 79 99 0.0 2.0 0.00 0.11 0.11 85 1014.5
20260905024046 79 99 0.0 4.0 0.00 0.11 0.11 85 1014.7
20260905023548 79 99 1.0 4.0 0.00 0.11 0.11 85 1014.8
20260905023103 79 51 2.0 4.0 0.00 0.11 0.11 85 1014.7
20260905022543 80 48 1.0 3.0 0.00 0.11 0.11 85 1014.9
20260905022045 80 47 1.0 3.0 0.00 0.11 0.11 85 1014.7
20260905021556 80 47 1.0 4.0 0.00 0.11 0.11 85 1014.7
20260905021048 80 47 1.0 4.0 0.00 0.11 0.11 85 1014.6
20260905020546 80 47 2.0 4.0 0.00 0.11 0.11 84 1014.6
20260905015544 80 47 2.0 4.0 0.00 0.11 0.11 84 1014.5
20260905015049 80 47 2.0 5.0 0.00 0.11 0.11 84 1014.4
20260905014559 80 57 1.0 5.0 0.00 0.11 0.11 84 1014.4
20260905014046 81 57 2.0 5.0 0.00 0.11 0.11 83 1014.4
20260905013546 81 74 1.0 4.0 0.00 0.11 0.11 83 1014.4
20260905013105 81 80 2.0 4.0 0.00 0.11 0.11 83 1014.4
20260905012548 81 80 2.0 4.0 0.00 0.11 0.11 83 1014.5
20260905012047 81 80 1.0 4.0 0.00 0.11 0.11 83 1014.4
20260905011555 81 80 1.0 5.0 0.00 0.11 0.11 82 1014.3
20260905011042 81 80 2.0 5.0 0.00 0.11 0.11 82 1014.3
20260905010541 81 92 1.0 3.0 0.00 0.11 0.11 82 1014.4
20260905010107 82 92 0.0 3.0 0.00 0.11 0.11 81 1014.1
20260905005544 82 92 1.0 3.0 0.00 0.11 0.11 81 1014.2
20260905005046 82 92 0.0 2.0 0.00 0.11 0.11 81 1014.0
20260905004613 82 92 0.0 2.0 0.00 0.11 0.11 81 1013.9
20260905004045 82 0 0.0 1.0 0.00 0.11 0.11 81 1014.0
20260905003548 82 0 0.0 1.0 0.00 0.11 0.11 80 1014.1
20260905003101 82 0 0.0 1.0 0.00 0.11 0.11 80 1014.1
20260905002548 82 0 0.0 1.0 0.00 0.11 0.11 80 1014.2
20260905002042 83 0 0.0 2.0 0.00 0.11 0.11 79 1014.2
20260905001605 83 92 0.0 2.0 0.00 0.11 0.11 79 1014.1
20260905001042 83 92 0.0 2.0 0.00 0.11 0.11 79 1014.2
20260905000546 83 0 0.0 1.0 0.00 0.11 0.11 78 1014.1
20260905000059 83 92 0.0 2.0 0.00 0.11 0.11 78 1014.0
20260904235546 83 92 0.0 4.0 0.00 0.11 0.11 78 1013.8
20260904235049 83 92 2.0 4.0 0.00 0.11 0.11 78 1013.7
20260904234604 84 91 1.0 3.0 0.00 0.11 0.11 77 1013.8
20260904234045 84 91 1.0 4.0 0.00 0.11 0.11 78 1013.7
20260904233545 84 91 1.0 4.0 0.00 0.11 0.11 78 1013.8
20260904233054 84 91 2.0 6.0 0.00 0.11 0.11 77 1013.7
20260904232545 84 89 2.0 6.0 0.00 0.11 0.11 79 1013.8
20260904232045 84 78 1.0 5.0 0.00 0.11 0.11 78 1013.8
20260904231603 84 78 1.0 5.0 0.00 0.11 0.11 78 1013.9
20260904231046 84 78 1.0 4.0 0.00 0.11 0.11 78 1013.9
20260904230546 84 61 2.0 4.0 0.00 0.11 0.11 78 1014.0
20260904230112 84 61 2.0 4.0 0.00 0.11 0.11 78 1014.0
20260904225545 84 35 2.0 5.0 0.00 0.11 0.11 80 1013.9
20260904225046 84 67 2.0 6.0 0.00 0.11 0.11 80 1013.7
20260904224604 83 17 3.0 8.0 0.00 0.11 0.11 81 1013.8
20260904224049 84 69 3.0 8.0 0.00 0.11 0.11 81 1013.7
20260904223549 83 56 4.0 7.0 0.00 0.11 0.11 80 1013.8
20260904223055 83 34 3.0 8.0 0.00 0.11 0.11 80 1013.9
20260904222545 84 54 3.0 8.0 0.00 0.11 0.11 80 1013.8
20260904222053 84 60 3.0 11.0 0.00 0.11 0.11 81 1014.0
20260904221553 84 86 5.0 11.0 0.00 0.11 0.11 81 1014.1
20260904221047 84 49 3.0 9.0 0.00 0.11 0.11 82 1013.9
20260904220547 84 19 4.0 9.0 0.00 0.11 0.11 85 1013.7
20260904220115 84 39 4.0 9.0 0.00 0.11 0.11 81 1013.7
20260904215543 84 53 2.0 8.0 0.00 0.11 0.11 81 1013.7
20260904215047 84 34 3.0 8.0 0.00 0.11 0.11 80 1013.8
20260904214554 84 24 4.0 8.0 0.00 0.11 0.11 80 1013.8
20260904214049 84 68 4.0 8.0 0.00 0.11 0.11 79 1013.6
20260904213544 84 76 2.0 3.0 0.00 0.11 0.11 80 1013.8
20260904213055 84 0 1.0 3.0 0.00 0.11 0.11 80 1013.7
20260904212546 84 80 1.0 3.0 0.00 0.11 0.11 81 1013.7
20260904212046 83 103 0.0 1.0 0.00 0.11 0.11 81 1013.7
20260904211613 83 0 0.0 2.0 0.00 0.11 0.11 81 1013.7
20260904211048 82 0 0.0 2.0 0.00 0.11 0.11 81 1013.6
20260904210546 82 103 0.0 2.0 0.00 0.11 0.11 82 1013.6
20260904210055 82 0 0.0 2.0 0.00 0.11 0.11 83 1013.6
20260904205545 82 0 0.0 2.0 0.00 0.11 0.11 86 1013.6
20260904205047 82 103 0.0 2.0 0.00 0.11 0.11 84 1013.5
20260904204554 82 0 0.0 3.0 0.01 0.11 0.11 85 1013.6
20260904204044 81 0 1.0 3.0 0.01 0.11 0.11 86 1013.6
20260904203545 81 103 0.0 4.0 0.02 0.11 0.11 88 1013.7
20260904203058 80 99 1.0 4.0 0.02 0.11 0.11 89 1013.6
20260904202545 79 99 2.0 6.0 0.02 0.11 0.11 88 1013.5
20260904202043 79 99 2.0 8.0 0.02 0.11 0.11 88 1013.7
20260904201556 79 108 3.0 8.0 0.02 0.11 0.11 88 1013.8
20260904201048 79 105 3.0 8.0 0.02 0.11 0.11 88 1013.9
20260904200546 79 94 2.0 4.0 0.02 0.11 0.11 88 1013.8
20260904200055 79 122 2.0 4.0 0.02 0.11 0.11 88 1013.9
20260904195545 79 92 2.0 4.0 0.02 0.11 0.11 87 1013.9
20260904195045 79 89 2.0 4.0 0.02 0.11 0.11 87 1014.1
20260904194615 79 99 2.0 4.0 0.01 0.10 0.10 87 1014.3
20260904194044 79 99 1.0 4.0 0.02 0.10 0.10 87 1014.4
20260904193547 79 99 1.0 4.0 0.02 0.09 0.09 87 1014.3
20260904193121 79 99 2.0 4.0 0.05 0.09 0.09 86 1014.5
20260904192543 79 99 1.0 4.0 0.07 0.09 0.09 86 1014.4
20260904192045 79 99 1.0 4.0 0.07 0.09 0.09 86 1014.4
20260904191555 79 99 2.0 4.0 0.08 0.09 0.09 86 1014.5
20260904191044 79 88 1.0 4.0 0.08 0.09 0.09 86 1014.5
20260904190545 80 88 3.0 4.0 0.08 0.09 0.09 85 1014.6
20260904190054 80 88 2.0 4.0 0.08 0.09 0.09 85 1014.7
20260904185544 80 89 2.0 4.0 0.08 0.09 0.09 85 1014.7
20260904185044 80 157 1.0 3.0 0.08 0.09 0.09 84 1014.5
20260904184600 80 157 2.0 5.0 0.08 0.09 0.09 84 1014.5
20260904184044 80 163 0.0 6.0 0.07 0.08 0.08 84 1014.7
20260904183544 80 162 1.0 10.0 0.06 0.07 0.07 84 1014.6
20260904183116 81 122 2.0 10.0 0.03 0.04 0.04 84 1014.6
20260904182544 81 156 3.0 8.0 0.01 0.02 0.02 84 1014.8
20260904182044 82 155 4.0 8.0 0.01 0.02 0.02 84 1015.0
20260904181553 82 107 4.0 8.0 0.00 0.01 0.01 83 1015.3
20260904181044 82 185 2.0 5.0 0.00 0.01 0.01 83 1015.2
20260904180544 82 229 1.0 4.0 0.01 0.01 0.01 83 1015.1
20260904180121 82 225 1.0 8.0 0.01 0.01 0.01 83 1014.9
20260904175543 83 225 1.0 8.0 0.01 0.01 0.01 84 1015.1
20260904175043 83 218 3.0 8.0 0.01 0.01 0.01 84 1015.3